Location: Newark
(44.3681°N, 100.3364°W)
Time: 14:37:22
(UTC+00:00)

deb Explorer IX - Pass Details

Date: 26 February 2020
Orbit: 547 x 1100 km, 38.8° (Epoch: 31 March)

Event Time Altitude Azimuth Distance (km) Brightness Sun altitude
Rises 19:33:42 0° 267° (W) 2,783 ? 36.2°
Reaches altitude 10° 19:36:21 10° 253° (WSW) 1,841 ? 36.1°
Maximum altitude 19:39:40 23° 200° (SSW) 1,178 ? 36.0°
Drops below altitude 10° 19:42:57 10° 147° (SSE) 1,811 ? 35.8°
Sets 19:45:32 0° 132° (SE) 2,725 ? 35.7°
